Year,Month,Day,Hour,Minute,Value (Times are PST for temperature in C)
2006,10,23,00,00,7.30
2006,10,23,00,01,7.30
2006,10,23,00,02,7.30
2006,10,23,00,03,7.40
2006,10,23,00,04,7.40
2006,10,23,00,05,7.40
2006,10,23,00,06,7.40
2006,10,23,00,07,7.40
2006,10,23,00,08,7.40
2006,10,23,00,09,7.40
2006,10,23,00,10,7.40
2006,10,23,00,11,7.40
2006,10,23,00,12,7.40
2006,10,23,00,13,7.40
2006,10,23,00,14,7.40
2006,10,23,00,15,7.40
2006,10,23,00,16,7.40
2006,10,23,00,17,7.40
2006,10,23,00,18,7.40
2006,10,23,00,19,7.40
2006,10,23,00,20,7.50
2006,10,23,00,21,7.50
2006,10,23,00,22,7.60
2006,10,23,00,23,7.60
2006,10,23,00,24,7.70
2006,10,23,00,25,7.70
2006,10,23,00,26,7.70
2006,10,23,00,27,7.80
2006,10,23,00,28,7.80
2006,10,23,00,29,7.80
2006,10,23,00,30,7.80
2006,10,23,00,31,7.80
2006,10,23,00,32,7.80
2006,10,23,00,33,7.80
2006,10,23,00,34,7.80
2006,10,23,00,35,7.80
2006,10,23,00,36,7.80
2006,10,23,00,37,7.80
2006,10,23,00,38,7.80
2006,10,23,00,39,7.80
2006,10,23,00,40,7.80
2006,10,23,00,41,7.80
2006,10,23,00,42,7.80
2006,10,23,01,15,7.40
2006,10,23,01,16,7.40
2006,10,23,01,17,7.40
2006,10,23,01,18,7.40
2006,10,23,01,19,7.40
2006,10,23,01,20,7.40
2006,10,23,01,21,7.40
2006,10,23,01,22,7.40
2006,10,23,01,23,7.40
2006,10,23,01,24,7.40
2006,10,23,01,25,7.40
2006,10,23,01,26,7.30
2006,10,23,01,27,7.30
2006,10,23,01,28,7.30
2006,10,23,01,29,7.30
2006,10,23,01,30,7.40
2006,10,23,01,31,7.40
2006,10,23,01,32,7.40
2006,10,23,01,33,7.50
2006,10,23,01,34,7.50
2006,10,23,01,35,7.50
2006,10,23,01,36,7.50
2006,10,23,01,37,7.50
2006,10,23,01,38,7.40
2006,10,23,01,39,7.40
2006,10,23,01,40,7.40
2006,10,23,01,41,7.40
2006,10,23,01,42,7.40
2006,10,23,01,43,7.40
2006,10,23,01,44,7.40
2006,10,23,01,45,7.40
2006,10,23,01,46,7.40
2006,10,23,01,47,7.40
2006,10,23,01,48,7.40
2006,10,23,01,49,7.40
2006,10,23,01,50,7.40
2006,10,23,01,51,7.40
2006,10,23,01,52,7.40
2006,10,23,01,53,7.40
2006,10,23,01,54,7.40
2006,10,23,01,55,7.40
2006,10,23,01,56,7.30
2006,10,23,01,57,7.30
2006,10,23,01,58,7.30
2006,10,23,01,59,7.30
2006,10,23,02,00,7.30
2006,10,23,02,01,7.20
2006,10,23,02,02,7.20
2006,10,23,02,03,7.20
2006,10,23,02,04,7.10
2006,10,23,02,05,7.10
2006,10,23,02,06,7.00
2006,10,23,02,07,7.00
2006,10,23,02,08,7.00
2006,10,23,02,09,6.90
2006,10,23,02,10,6.90
2006,10,23,02,11,6.80
2006,10,23,02,12,6.80
2006,10,23,02,13,6.80
2006,10,23,02,14,6.80
2006,10,23,02,15,6.80
2006,10,23,02,16,6.70
2006,10,23,02,17,6.70
2006,10,23,02,18,6.70
2006,10,23,02,19,6.60
2006,10,23,02,20,6.60
2006,10,23,02,21,6.60
2006,10,23,02,22,6.60
2006,10,23,02,23,6.60
2006,10,23,02,24,6.60
2006,10,23,02,25,6.60
2006,10,23,02,26,6.50
2006,10,23,02,27,6.40
2006,10,23,02,28,6.40
2006,10,23,02,29,6.40
2006,10,23,02,30,6.40
2006,10,23,02,31,6.40
2006,10,23,02,32,6.40
2006,10,23,02,33,6.40
2006,10,23,02,34,6.50
2006,10,23,02,35,6.60
2006,10,23,02,36,6.60
2006,10,23,02,37,6.60
2006,10,23,02,38,6.60
2006,10,23,02,39,6.60
2006,10,23,02,40,6.60
2006,10,23,02,41,6.60
2006,10,23,02,42,6.60
2006,10,23,02,43,6.60
2006,10,23,02,44,6.60
2006,10,23,02,45,6.70
2006,10,23,02,46,6.70
2006,10,23,02,47,6.70
2006,10,23,02,48,6.80
2006,10,23,02,49,6.80
2006,10,23,02,50,6.80
2006,10,23,02,51,6.80
2006,10,23,02,52,6.80
2006,10,23,02,53,6.80
2006,10,23,02,54,6.80
2006,10,23,02,55,6.80
2006,10,23,02,56,6.80
2006,10,23,02,57,6.80
2006,10,23,02,58,6.80
2006,10,23,02,59,6.80
2006,10,23,03,00,6.80
2006,10,23,03,01,6.80
2006,10,23,03,02,6.80
2006,10,23,03,03,6.80
2006,10,23,03,04,6.80
2006,10,23,03,05,6.80
2006,10,23,03,06,6.80
2006,10,23,03,07,6.80
2006,10,23,03,08,6.80
2006,10,23,03,09,6.80
2006,10,23,03,10,6.70
2006,10,23,03,11,6.70
2006,10,23,03,12,6.60
2006,10,23,03,13,6.60
2006,10,23,03,14,6.50
2006,10,23,03,15,6.40
2006,10,23,03,16,6.40
2006,10,23,03,17,6.40
2006,10,23,03,18,6.40
2006,10,23,03,19,6.40
2006,10,23,03,20,6.40
2006,10,23,03,21,6.40
2006,10,23,03,22,6.40
2006,10,23,03,23,6.40
2006,10,23,03,24,6.40
2006,10,23,03,25,6.40
2006,10,23,03,26,6.40
2006,10,23,03,27,6.40
2006,10,23,03,28,6.40
2006,10,23,04,01,5.70
2006,10,23,04,02,5.70
2006,10,23,04,03,5.70
2006,10,23,04,04,5.70
2006,10,23,04,05,5.70
2006,10,23,04,06,5.70
2006,10,23,04,07,5.70
2006,10,23,04,08,5.70
2006,10,23,04,09,5.60
2006,10,23,04,10,5.60
2006,10,23,04,11,5.60
2006,10,23,04,12,5.60
2006,10,23,04,13,5.60
2006,10,23,04,14,5.60
2006,10,23,04,15,5.60
2006,10,23,04,16,5.60
2006,10,23,04,17,5.60
2006,10,23,04,18,5.70
2006,10,23,04,19,5.70
2006,10,23,04,20,5.70
2006,10,23,04,21,5.70
2006,10,23,04,22,5.80
2006,10,23,04,23,5.90
2006,10,23,04,24,5.90
2006,10,23,04,25,6.00
2006,10,23,04,26,6.20
2006,10,23,04,27,6.20
2006,10,23,04,28,6.30
2006,10,23,04,29,6.40
2006,10,23,04,30,6.50
2006,10,23,04,31,6.60
2006,10,23,04,32,6.60
2006,10,23,04,33,6.60
2006,10,23,04,34,6.60
2006,10,23,04,35,6.60
2006,10,23,04,36,6.60
2006,10,23,04,37,6.50
2006,10,23,04,38,6.40
2006,10,23,04,39,6.40
2006,10,23,04,40,6.30
2006,10,23,04,41,6.20
2006,10,23,04,42,6.10
2006,10,23,04,43,6.00
2006,10,23,04,44,6.00
2006,10,23,04,45,5.90
2006,10,23,04,46,5.90
2006,10,23,04,47,5.80
2006,10,23,04,48,5.80
2006,10,23,04,49,5.80
2006,10,23,04,50,5.80
2006,10,23,04,51,5.80
2006,10,23,04,52,5.80
2006,10,23,04,53,5.80
2006,10,23,04,54,5.80
2006,10,23,04,55,5.70
2006,10,23,04,56,5.70
2006,10,23,04,57,5.70
2006,10,23,04,58,5.70
2006,10,23,04,59,5.70
2006,10,23,05,00,5.70
2006,10,23,05,01,5.70
2006,10,23,05,02,5.90
2006,10,23,05,03,6.00
2006,10,23,05,04,6.00
2006,10,23,05,05,6.10
2006,10,23,05,06,6.10
2006,10,23,05,07,6.10
2006,10,23,05,08,6.10
2006,10,23,05,09,6.10
2006,10,23,05,10,6.00
2006,10,23,05,11,6.00
2006,10,23,05,12,6.00
2006,10,23,05,13,6.00
2006,10,23,05,14,6.00
2006,10,23,05,15,6.00
2006,10,23,05,16,6.00
2006,10,23,05,17,5.90
2006,10,23,05,18,5.80
2006,10,23,05,19,5.70
2006,10,23,05,20,5.70
2006,10,23,05,21,5.70
2006,10,23,05,22,5.60
2006,10,23,05,23,5.60
2006,10,23,05,24,5.60
2006,10,23,05,25,5.50
2006,10,23,05,26,5.50
2006,10,23,05,27,5.50
2006,10,23,05,28,5.50
2006,10,23,05,29,5.40
2006,10,23,05,30,5.40
2006,10,23,05,31,5.40
2006,10,23,05,32,5.30
2006,10,23,05,33,5.30
2006,10,23,05,34,5.30
2006,10,23,05,35,5.30
2006,10,23,05,36,5.30
2006,10,23,05,37,5.30
2006,10,23,05,38,5.30
2006,10,23,05,39,5.40
2006,10,23,05,40,5.50
2006,10,23,05,41,5.60
2006,10,23,05,42,5.70
2006,10,23,05,43,5.70
2006,10,23,05,44,5.70
2006,10,23,05,45,5.80
2006,10,23,05,46,5.80
2006,10,23,05,47,5.80
2006,10,23,05,48,5.80
2006,10,23,05,49,5.80
2006,10,23,05,50,5.80
2006,10,23,05,51,5.80
2006,10,23,05,52,5.80
2006,10,23,05,53,5.70
2006,10,23,05,54,5.70
2006,10,23,05,55,5.70
2006,10,23,05,56,5.70
2006,10,23,05,57,5.70
2006,10,23,05,58,5.70
2006,10,23,05,59,5.70
2006,10,23,06,00,5.70
2006,10,23,06,01,5.70
2006,10,23,06,02,5.70
2006,10,23,06,03,5.80
2006,10,23,06,04,5.80
2006,10,23,06,05,5.80
2006,10,23,06,06,5.80
2006,10,23,06,07,5.80
2006,10,23,06,08,5.80
2006,10,23,06,09,5.80
2006,10,23,06,10,5.80
2006,10,23,06,11,5.80
2006,10,23,06,12,5.80
2006,10,23,06,13,5.80
2006,10,23,06,14,5.80
2006,10,23,06,47,5.10
2006,10,23,06,48,5.10
2006,10,23,06,49,5.10
2006,10,23,06,50,5.10
2006,10,23,06,51,5.10
2006,10,23,06,52,5.10
2006,10,23,06,53,5.10
2006,10,23,06,54,4.90
2006,10,23,06,55,5.00
2006,10,23,06,56,5.10
2006,10,23,06,57,5.10
2006,10,23,06,58,5.10
2006,10,23,06,59,5.30
2006,10,23,07,00,5.30
2006,10,23,07,01,5.40
2006,10,23,07,02,5.50
2006,10,23,07,03,5.50
2006,10,23,07,04,5.60
2006,10,23,07,05,5.60
2006,10,23,07,06,5.70
2006,10,23,07,07,5.70
2006,10,23,07,08,5.70
2006,10,23,07,09,5.70
2006,10,23,07,10,5.70
2006,10,23,07,11,5.70
2006,10,23,07,12,5.70
2006,10,23,07,13,5.70
2006,10,23,07,14,5.70
2006,10,23,07,15,5.70
2006,10,23,07,16,5.70
2006,10,23,07,17,5.70
2006,10,23,07,18,5.70
2006,10,23,07,19,5.70
2006,10,23,07,20,5.70
2006,10,23,07,21,5.70
2006,10,23,07,22,5.70
2006,10,23,07,23,5.70
2006,10,23,07,24,5.70
2006,10,23,07,25,5.70
2006,10,23,07,26,5.70
2006,10,23,07,27,5.70
2006,10,23,07,28,5.70
2006,10,23,07,29,5.70
2006,10,23,07,30,5.70
2006,10,23,08,03,5.90
2006,10,23,08,04,5.90
2006,10,23,08,05,5.80
2006,10,23,08,06,5.80
2006,10,23,08,07,5.70
2006,10,23,08,08,5.60
2006,10,23,08,09,5.50
2006,10,23,08,10,5.40
2006,10,23,08,11,5.30
2006,10,23,08,12,5.20
2006,10,23,08,13,5.10
2006,10,23,08,14,5.10
2006,10,23,08,15,5.10
2006,10,23,08,16,4.90
2006,10,23,08,17,4.90
2006,10,23,08,18,4.90
2006,10,23,08,19,4.90
2006,10,23,08,20,4.90
2006,10,23,08,21,5.00
2006,10,23,08,22,5.10
2006,10,23,08,23,5.20
2006,10,23,08,24,5.30
2006,10,23,08,25,5.30
2006,10,23,08,26,5.30
2006,10,23,08,27,5.40
2006,10,23,08,28,5.60
2006,10,23,08,29,5.60
2006,10,23,08,30,5.60
2006,10,23,08,31,5.70
2006,10,23,08,32,5.70
2006,10,23,08,33,5.70
2006,10,23,08,34,5.70
2006,10,23,08,35,5.70
2006,10,23,08,36,5.70
2006,10,23,08,37,5.80
2006,10,23,08,38,5.90
2006,10,23,08,39,5.90
2006,10,23,08,40,5.90
2006,10,23,08,41,5.90
2006,10,23,08,42,5.90
2006,10,23,08,43,5.90
2006,10,23,08,44,5.80
2006,10,23,08,45,5.80
2006,10,23,08,46,5.80
2006,10,23,08,47,5.70
2006,10,23,08,48,5.70
2006,10,23,08,49,5.60
2006,10,23,08,50,5.60
2006,10,23,08,51,5.50
2006,10,23,08,52,5.40
2006,10,23,08,53,5.40
2006,10,23,08,54,5.40
2006,10,23,08,55,5.30
2006,10,23,08,56,5.30
2006,10,23,08,57,5.30
2006,10,23,08,58,5.40
2006,10,23,08,59,5.40
2006,10,23,09,00,5.40
2006,10,23,09,01,5.50
2006,10,23,09,02,5.50
2006,10,23,09,03,5.50
2006,10,23,09,04,5.60
2006,10,23,09,05,5.60
2006,10,23,09,06,5.60
2006,10,23,09,07,5.70
2006,10,23,09,08,5.70
2006,10,23,09,09,5.70
2006,10,23,09,10,5.70
2006,10,23,09,11,5.80
2006,10,23,09,12,5.80
2006,10,23,09,13,5.90
2006,10,23,09,14,5.90
2006,10,23,09,15,6.00
2006,10,23,09,16,6.10
2006,10,23,09,17,6.20
2006,10,23,09,18,6.20
2006,10,23,09,19,6.20
2006,10,23,09,20,6.20
2006,10,23,09,21,6.20
2006,10,23,09,22,6.20
2006,10,23,09,23,6.20
2006,10,23,09,24,6.30
2006,10,23,09,25,6.30
2006,10,23,09,26,6.30
2006,10,23,09,27,6.30
2006,10,23,09,28,6.40
2006,10,23,09,29,6.40
2006,10,23,09,30,6.40
2006,10,23,09,31,6.60
2006,10,23,09,32,6.60
2006,10,23,09,33,6.70
2006,10,23,09,34,6.80
2006,10,23,09,35,6.90
2006,10,23,09,36,7.00
2006,10,23,09,37,7.10
2006,10,23,09,38,7.20
2006,10,23,09,39,7.30
2006,10,23,09,40,7.30
2006,10,23,09,41,7.40
2006,10,23,09,42,7.50
2006,10,23,09,43,7.60
2006,10,23,09,44,7.60
2006,10,23,09,45,7.70
2006,10,23,09,46,7.80
2006,10,23,09,47,7.80
2006,10,23,09,48,7.90
2006,10,23,09,49,8.00
2006,10,23,09,50,8.10
2006,10,23,09,51,8.10
2006,10,23,09,52,8.20
2006,10,23,09,53,8.30
2006,10,23,09,54,8.30
2006,10,23,09,55,8.40
2006,10,23,09,56,8.40
2006,10,23,09,57,8.40
2006,10,23,09,58,8.50
2006,10,23,09,59,8.50
2006,10,23,10,00,8.50
2006,10,23,10,01,8.60
2006,10,23,10,02,8.60
2006,10,23,10,03,8.60
2006,10,23,10,04,8.70
2006,10,23,10,05,8.70
2006,10,23,10,06,8.70
2006,10,23,10,07,8.70
2006,10,23,10,08,8.70
2006,10,23,10,09,8.70
2006,10,23,10,10,8.70
2006,10,23,10,11,8.70
2006,10,23,10,12,8.70
2006,10,23,10,13,8.90
2006,10,23,10,14,9.00
2006,10,23,10,15,9.00
2006,10,23,10,16,9.10
2006,10,23,10,17,9.10
2006,10,23,10,18,9.20
2006,10,23,10,19,9.20
2006,10,23,10,20,9.20
2006,10,23,10,21,9.30
2006,10,23,10,22,9.40
2006,10,23,10,23,9.40
2006,10,23,10,24,9.50
2006,10,23,10,25,9.50
2006,10,23,10,26,9.60
2006,10,23,10,27,9.70
2006,10,23,10,28,9.70
2006,10,23,10,29,9.70
2006,10,23,10,30,9.70
2006,10,23,10,31,9.70
2006,10,23,10,32,9.70
2006,10,23,10,33,9.70
2006,10,23,10,34,9.70
2006,10,23,10,35,9.70
2006,10,23,10,36,9.70
2006,10,23,10,37,9.70
2006,10,23,10,38,9.70
2006,10,23,10,39,9.70
2006,10,23,10,40,9.70
2006,10,23,10,41,9.70
2006,10,23,10,42,9.70
2006,10,23,10,43,9.70
2006,10,23,10,44,9.70
2006,10,23,10,45,9.70
2006,10,23,10,46,9.70
2006,10,23,10,47,9.70
2006,10,23,10,48,9.70
2006,10,23,10,49,9.70
2006,10,23,10,50,9.80
2006,10,23,10,51,9.90
2006,10,23,10,52,9.90
2006,10,23,10,53,9.90
2006,10,23,10,54,9.90
2006,10,23,10,55,9.90
2006,10,23,10,56,10.00
2006,10,23,10,57,10.10
2006,10,23,10,58,10.10
2006,10,23,10,59,10.10
2006,10,23,11,00,10.10
2006,10,23,11,01,10.10
2006,10,23,11,02,10.20
2006,10,23,11,03,10.20
2006,10,23,11,04,10.30
2006,10,23,11,05,10.40
2006,10,23,11,06,10.40
2006,10,23,11,07,10.40
2006,10,23,11,08,10.60
2006,10,23,11,09,10.60
2006,10,23,11,10,10.60
2006,10,23,11,11,10.60
2006,10,23,11,12,10.60
2006,10,23,11,13,10.60
2006,10,23,11,14,10.70
2006,10,23,11,15,10.70
2006,10,23,11,16,10.70
2006,10,23,11,17,10.70
2006,10,23,11,18,10.70
2006,10,23,11,19,10.70
2006,10,23,11,20,10.80
2006,10,23,11,21,10.80
2006,10,23,11,22,10.80
2006,10,23,11,23,10.80
2006,10,23,11,24,10.80
2006,10,23,11,25,10.80
2006,10,23,11,26,10.80
2006,10,23,11,27,10.90
2006,10,23,11,28,10.90
2006,10,23,11,29,10.90
2006,10,23,11,30,10.90
2006,10,23,11,31,10.90
2006,10,23,11,32,10.90
2006,10,23,11,33,10.90
2006,10,23,11,34,10.90
2006,10,23,11,35,10.90
2006,10,23,11,36,10.90
2006,10,23,11,37,11.10
2006,10,23,11,38,11.10
2006,10,23,11,39,11.10
2006,10,23,11,40,11.10
2006,10,23,11,41,11.10
2006,10,23,11,42,11.10
2006,10,23,11,43,11.10
2006,10,23,11,44,11.10
2006,10,23,11,45,11.10
2006,10,23,11,46,11.10
2006,10,23,11,47,11.10
2006,10,23,11,48,11.10
2006,10,23,11,49,11.10
2006,10,23,11,50,11.10
2006,10,23,11,51,11.20
2006,10,23,11,52,11.20
2006,10,23,11,53,11.20
2006,10,23,11,54,11.20
2006,10,23,11,55,11.30
2006,10,23,11,56,11.40
2006,10,23,11,57,11.40
2006,10,23,11,58,11.30
2006,10,23,11,59,11.30
2006,10,23,12,00,11.30
2006,10,23,12,01,11.30
2006,10,23,12,02,11.40
2006,10,23,12,03,11.40
2006,10,23,12,04,11.40
2006,10,23,12,05,11.40
2006,10,23,12,06,11.40
2006,10,23,12,07,11.40
2006,10,23,12,08,11.40
2006,10,23,12,09,11.40
2006,10,23,12,10,11.50
2006,10,23,12,11,11.60
2006,10,23,12,12,11.60
2006,10,23,12,13,11.60
2006,10,23,12,14,11.60
2006,10,23,12,15,11.60
2006,10,23,12,16,11.70
2006,10,23,12,17,11.70
2006,10,23,12,18,11.80
2006,10,23,12,19,11.80
2006,10,23,12,20,11.90
2006,10,23,12,21,11.90
2006,10,23,12,22,12.00
2006,10,23,12,23,12.00
2006,10,23,12,24,12.00
2006,10,23,12,25,12.00
2006,10,23,12,26,12.00
2006,10,23,12,27,12.10
2006,10,23,12,28,12.10
2006,10,23,12,29,12.20
2006,10,23,12,30,12.20
2006,10,23,12,31,12.30
2006,10,23,12,32,12.30
2006,10,23,12,33,12.30
2006,10,23,12,34,12.30
2006,10,23,12,35,12.30
2006,10,23,12,36,12.30
2006,10,23,12,37,12.30
2006,10,23,12,38,12.30
2006,10,23,12,39,12.30
2006,10,23,12,40,12.30
2006,10,23,12,41,12.30
2006,10,23,12,42,12.30
2006,10,23,12,43,12.30
2006,10,23,12,44,12.30
2006,10,23,12,45,12.40
2006,10,23,12,46,12.40
2006,10,23,12,47,12.40
2006,10,23,12,48,12.40
2006,10,23,12,49,12.40
2006,10,23,12,50,12.50
2006,10,23,12,51,12.50
2006,10,23,12,52,12.50
2006,10,23,12,53,12.60
2006,10,23,12,54,12.60
2006,10,23,12,55,12.60
2006,10,23,12,56,12.60
2006,10,23,12,57,12.60
2006,10,23,12,58,12.70
2006,10,23,12,59,12.70
2006,10,23,13,00,12.70
2006,10,23,13,01,12.80
2006,10,23,13,02,12.80
2006,10,23,13,03,12.80
2006,10,23,13,04,12.80
2006,10,23,13,05,12.80
2006,10,23,13,06,12.80
2006,10,23,13,07,12.80
2006,10,23,13,08,12.80
2006,10,23,13,09,12.90
2006,10,23,13,10,12.90
2006,10,23,13,11,12.90
2006,10,23,13,12,12.90
2006,10,23,13,13,12.90
2006,10,23,13,14,12.90
2006,10,23,13,15,12.80
2006,10,23,13,16,12.80
2006,10,23,13,17,12.80
2006,10,23,13,18,12.80
2006,10,23,13,19,12.80
2006,10,23,13,20,12.80
2006,10,23,13,21,12.80
2006,10,23,13,22,12.80
2006,10,23,13,23,12.80
2006,10,23,13,24,12.80
2006,10,23,13,25,12.70
2006,10,23,13,26,12.60
2006,10,23,13,27,12.60
2006,10,23,13,28,12.60
2006,10,23,13,29,12.50
2006,10,23,13,30,12.60
2006,10,23,13,31,12.60
2006,10,23,13,32,12.60
2006,10,23,13,33,12.70
2006,10,23,13,34,12.70
2006,10,23,13,35,12.70
2006,10,23,13,36,12.70
2006,10,23,13,37,12.70
2006,10,23,13,38,12.70
2006,10,23,13,39,12.70
2006,10,23,13,40,12.70
2006,10,23,13,41,12.60
2006,10,23,13,42,12.60
2006,10,23,13,43,12.50
2006,10,23,13,44,12.50
2006,10,23,13,45,12.50
2006,10,23,13,46,12.40
2006,10,23,13,47,12.40
2006,10,23,13,48,12.30
2006,10,23,13,49,12.30
2006,10,23,13,50,12.30
2006,10,23,13,51,12.30
2006,10,23,13,52,12.30
2006,10,23,13,53,12.30
2006,10,23,13,54,12.30
2006,10,23,13,55,12.30
2006,10,23,13,56,12.30
2006,10,23,13,57,12.30
2006,10,23,13,58,12.30
2006,10,23,13,59,12.30
2006,10,23,14,00,12.30
2006,10,23,14,01,12.30
2006,10,23,14,02,12.30
2006,10,23,14,03,12.20
2006,10,23,14,04,12.30
2006,10,23,14,05,12.30
2006,10,23,14,06,12.30
2006,10,23,14,07,12.30
2006,10,23,14,08,12.30
2006,10,23,14,09,12.30
2006,10,23,14,10,12.30
2006,10,23,14,11,12.30
2006,10,23,14,12,12.30
2006,10,23,14,13,12.30
2006,10,23,14,14,12.30
2006,10,23,14,15,12.30
2006,10,23,14,16,12.30
2006,10,23,14,17,12.30
2006,10,23,14,18,12.30
2006,10,23,14,19,12.30
2006,10,23,14,20,12.30
2006,10,23,14,21,12.20
2006,10,23,14,22,12.20
2006,10,23,14,23,12.10
2006,10,23,14,24,12.10
2006,10,23,14,25,12.00
2006,10,23,14,26,12.00
2006,10,23,14,27,11.90
2006,10,23,14,28,11.90
2006,10,23,14,29,11.90
2006,10,23,14,30,11.90
2006,10,23,14,31,11.90
2006,10,23,14,32,11.80
2006,10,23,14,33,11.80
2006,10,23,14,34,11.90
2006,10,23,14,35,11.80
2006,10,23,14,36,11.80
2006,10,23,14,37,11.80
2006,10,23,14,38,11.80
2006,10,23,14,39,11.80
2006,10,23,14,40,11.80
2006,10,23,14,41,11.80
2006,10,23,14,42,11.80
2006,10,23,14,43,11.80
2006,10,23,14,44,11.80
2006,10,23,14,45,11.80
2006,10,23,14,46,11.80
2006,10,23,14,47,11.80
2006,10,23,14,48,11.80
2006,10,23,14,49,11.80
2006,10,23,14,50,11.80
2006,10,23,14,51,11.80
2006,10,23,14,52,11.80
2006,10,23,14,53,11.70
2006,10,23,14,54,11.70
2006,10,23,14,55,11.70
2006,10,23,14,56,11.70
2006,10,23,14,57,11.60
2006,10,23,14,58,11.60
2006,10,23,14,59,11.60
2006,10,23,15,00,11.60
2006,10,23,15,01,11.60
2006,10,23,15,02,11.60
2006,10,23,15,03,11.60
2006,10,23,15,04,11.60
2006,10,23,15,05,11.60
2006,10,23,15,06,11.60
2006,10,23,15,07,11.60
2006,10,23,15,08,11.50
2006,10,23,15,09,11.40
2006,10,23,15,10,11.40
2006,10,23,15,11,11.40
2006,10,23,15,12,11.40
2006,10,23,15,13,11.40
2006,10,23,15,14,11.40
2006,10,23,15,15,11.40
2006,10,23,15,16,11.40
2006,10,23,15,17,11.40
2006,10,23,15,18,11.40
2006,10,23,15,19,11.40
2006,10,23,15,20,11.40
2006,10,23,15,21,11.50
2006,10,23,15,22,11.60
2006,10,23,15,23,11.60
2006,10,23,15,24,11.60
2006,10,23,15,25,11.60
2006,10,23,15,26,11.60
2006,10,23,15,27,11.60
2006,10,23,15,28,11.60
2006,10,23,15,29,11.70
2006,10,23,15,30,11.70
2006,10,23,15,31,11.80
2006,10,23,15,32,11.80
2006,10,23,15,33,11.80
2006,10,23,15,34,11.80
2006,10,23,15,35,11.80
2006,10,23,15,36,11.80
2006,10,23,15,37,11.80
2006,10,23,15,38,11.80
2006,10,23,15,39,11.80
2006,10,23,15,40,11.80
2006,10,23,15,41,11.80
2006,10,23,15,42,11.80
2006,10,23,15,43,11.80
2006,10,23,15,44,11.80
2006,10,23,15,45,11.70
2006,10,23,15,46,11.70
2006,10,23,15,47,11.70
2006,10,23,15,48,11.60
2006,10,23,15,49,11.60
2006,10,23,15,50,11.60
2006,10,23,15,51,11.60
2006,10,23,15,52,11.60
2006,10,23,15,53,11.60
2006,10,23,15,54,11.60
2006,10,23,15,55,11.60
2006,10,23,15,56,11.60
2006,10,23,15,57,11.70
2006,10,23,15,58,11.70
2006,10,23,15,59,11.70
2006,10,23,16,00,11.70
2006,10,23,16,01,11.70
2006,10,23,16,02,11.70
2006,10,23,16,03,11.70
2006,10,23,16,04,11.70
2006,10,23,16,05,11.70
2006,10,23,16,06,11.70
2006,10,23,16,07,11.80
2006,10,23,16,08,11.80
2006,10,23,16,09,11.80
2006,10,23,16,10,11.80
2006,10,23,16,11,11.80
2006,10,23,16,12,11.80
2006,10,23,16,13,11.80
2006,10,23,16,14,11.90
2006,10,23,16,15,11.90
2006,10,23,16,16,11.90
2006,10,23,16,17,11.90
2006,10,23,16,18,11.90
2006,10,23,16,19,11.90
2006,10,23,16,20,11.90
2006,10,23,16,21,11.90
2006,10,23,16,22,11.90
2006,10,23,16,23,11.90
2006,10,23,16,24,11.90
2006,10,23,16,25,11.90
2006,10,23,16,26,11.90
2006,10,23,16,27,11.90
2006,10,23,16,28,12.00
2006,10,23,16,29,12.00
2006,10,23,16,30,12.00
2006,10,23,16,31,12.00
2006,10,23,16,32,12.00
2006,10,23,16,33,12.00
2006,10,23,16,34,12.00
2006,10,23,16,35,12.00
2006,10,23,16,36,12.00
2006,10,23,16,37,12.00
2006,10,23,16,38,11.90
2006,10,23,16,39,11.90
2006,10,23,16,40,11.80
2006,10,23,16,41,11.80
2006,10,23,16,42,11.80
2006,10,23,16,43,11.80
2006,10,23,16,44,11.70
2006,10,23,16,45,11.70
2006,10,23,16,46,11.70
2006,10,23,16,47,11.70
2006,10,23,16,48,11.70
2006,10,23,16,49,11.70
2006,10,23,16,50,11.60
2006,10,23,16,51,11.60
2006,10,23,16,52,11.60
2006,10,23,16,53,11.60
2006,10,23,16,54,11.60
2006,10,23,16,55,11.60
2006,10,23,16,56,11.60
2006,10,23,16,57,11.60
2006,10,23,16,58,11.60
2006,10,23,16,59,11.60
2006,10,23,17,00,11.60
2006,10,23,17,01,11.60
2006,10,23,17,02,11.50
2006,10,23,17,03,11.40
2006,10,23,17,04,11.40
2006,10,23,17,05,11.40
2006,10,23,17,06,11.40
2006,10,23,17,07,11.40
2006,10,23,17,08,11.40
2006,10,23,17,09,11.30
2006,10,23,17,10,11.30
2006,10,23,17,11,11.30
2006,10,23,17,12,11.20
2006,10,23,17,13,11.20
2006,10,23,17,14,11.20
2006,10,23,17,15,11.20
2006,10,23,17,16,11.20
2006,10,23,17,17,11.20
2006,10,23,17,18,11.20
2006,10,23,17,19,11.20
2006,10,23,17,20,11.20
2006,10,23,17,21,11.20
2006,10,23,17,22,11.30
2006,10,23,17,23,11.30
2006,10,23,17,24,11.30
2006,10,23,17,25,11.30
2006,10,23,17,26,11.30
2006,10,23,17,27,11.30
2006,10,23,17,28,11.30
2006,10,23,17,29,11.30
2006,10,23,17,30,11.30
2006,10,23,17,31,11.30
2006,10,23,17,32,11.30
2006,10,23,17,33,11.30
2006,10,23,17,34,11.20
2006,10,23,17,35,11.20
2006,10,23,17,36,11.20
2006,10,23,17,37,11.20
2006,10,23,17,38,11.20
2006,10,23,17,39,11.20
2006,10,23,17,40,11.10
2006,10,23,17,41,11.10
2006,10,23,17,42,11.10
2006,10,23,17,43,11.00
2006,10,23,17,44,10.90
2006,10,23,17,45,10.90
2006,10,23,17,46,10.90
2006,10,23,17,47,10.90
2006,10,23,17,48,10.90
2006,10,23,17,49,10.90
2006,10,23,17,50,10.80
2006,10,23,17,51,10.80
2006,10,23,17,52,10.80
2006,10,23,17,53,10.70
2006,10,23,17,54,10.70
2006,10,23,17,55,10.60
2006,10,23,17,56,10.60
2006,10,23,17,57,10.60
2006,10,23,17,58,10.60
2006,10,23,17,59,10.60
2006,10,23,18,00,10.50
2006,10,23,18,01,10.40
2006,10,23,18,02,10.40
2006,10,23,18,03,10.40
2006,10,23,18,04,10.30
2006,10,23,18,05,10.30
2006,10,23,18,06,10.20
2006,10,23,18,07,10.20
2006,10,23,18,08,10.20
2006,10,23,18,09,10.10
2006,10,23,18,10,10.10
2006,10,23,18,11,10.10
2006,10,23,18,12,10.00
2006,10,23,18,13,9.90
2006,10,23,18,14,9.90
2006,10,23,18,15,9.90
2006,10,23,18,16,9.90
2006,10,23,18,17,9.90
2006,10,23,18,18,9.90
2006,10,23,18,19,9.80
2006,10,23,18,20,9.80
2006,10,23,18,21,9.80
2006,10,23,18,22,9.80
2006,10,23,18,23,9.80
2006,10,23,18,24,9.80
2006,10,23,18,25,9.70
2006,10,23,18,26,9.70
2006,10,23,18,27,9.70
2006,10,23,18,28,9.70
2006,10,23,18,29,9.70
2006,10,23,18,30,9.70
2006,10,23,18,31,9.70
2006,10,23,18,32,9.70
2006,10,23,18,33,9.70
2006,10,23,18,34,9.70
2006,10,23,18,35,9.70
2006,10,23,18,36,9.70
2006,10,23,18,37,9.70
2006,10,23,18,38,9.70
2006,10,23,18,39,9.60
2006,10,23,18,40,9.60
2006,10,23,18,41,9.60
2006,10,23,18,42,9.60
2006,10,23,18,43,9.60
2006,10,23,18,44,9.50
2006,10,23,18,45,9.50
2006,10,23,18,46,9.50
2006,10,23,18,47,9.50
2006,10,23,18,48,9.50
2006,10,23,18,49,9.50
2006,10,23,18,50,9.40
2006,10,23,18,51,9.40
2006,10,23,18,52,9.40
2006,10,23,18,53,9.40
2006,10,23,18,54,9.40
2006,10,23,18,55,9.40
2006,10,23,18,56,9.40
2006,10,23,18,57,9.40
2006,10,23,18,58,9.30
2006,10,23,18,59,9.30
2006,10,23,19,00,9.30
2006,10,23,19,01,9.30
2006,10,23,19,02,9.30
2006,10,23,19,03,9.30
2006,10,23,19,04,9.30
2006,10,23,19,05,9.30
2006,10,23,19,06,9.30
2006,10,23,19,07,9.20
2006,10,23,19,08,9.20
2006,10,23,19,09,9.20
2006,10,23,19,10,9.20
2006,10,23,19,11,9.20
2006,10,23,19,12,9.20
2006,10,23,19,13,9.20
2006,10,23,19,14,9.20
2006,10,23,19,15,9.20
2006,10,23,19,16,9.20
2006,10,23,19,17,9.20
2006,10,23,19,18,9.20
2006,10,23,19,19,9.20
2006,10,23,19,20,9.20
2006,10,23,19,21,9.20
2006,10,23,19,22,9.20
2006,10,23,19,23,9.20
2006,10,23,19,24,9.20
2006,10,23,19,25,9.20
2006,10,23,19,26,9.20
2006,10,23,19,27,9.20
2006,10,23,19,28,9.20
2006,10,23,19,29,9.20
2006,10,23,19,30,9.10
2006,10,23,19,31,9.10
2006,10,23,19,32,9.10
2006,10,23,19,33,9.10
2006,10,23,19,34,9.10
2006,10,23,19,35,9.10
2006,10,23,19,36,9.10
2006,10,23,19,37,9.10
2006,10,23,19,38,9.10
2006,10,23,19,39,9.10
2006,10,23,19,40,9.10
2006,10,23,19,41,9.00
2006,10,23,19,42,9.00
2006,10,23,19,43,9.00
2006,10,23,19,44,9.00
2006,10,23,19,45,9.00
2006,10,23,19,46,9.00
2006,10,23,19,47,9.00
2006,10,23,19,48,8.90
2006,10,23,19,49,8.90
2006,10,23,19,50,8.80
2006,10,23,19,51,8.80
2006,10,23,19,52,8.80
2006,10,23,19,53,8.70
2006,10,23,19,54,8.70